GW6961 Weather Reports


time (UTC)temp
F
wind
direction
speed
knots
gust
knots
rain 1hr
in
rain 24hr
in
rain mn
in
humidity
%
barometer
mb
20260505094213 68 48 1.7 3.5 0.00 0.00 0.00 97
20260505093913 67 48 1.7 1.7 0.00 0.00 0.00 97
20260505093623 68 233 0.0 0.9 0.00 0.00 0.00 97
20260505093322 68 229 0.0 0.9 0.00 0.00 0.00 97
20260505093022 68 184 0.0 0.0 0.00 0.00 0.00 97
20260505092722 68 145 0.0 0.9 0.00 0.00 0.00 97
20260505092421 68 103 0.0 0.0 0.00 0.00 0.00 97
20260505092120 68 126 0.0 0.0 0.00 0.00 0.00 97
20260505091819 68 201 0.0 0.9 0.00 0.00 0.00 97
20260505091519 68 299 0.0 0.0 0.00 0.00 0.00 97
20260505091217 68 36 0.0 0.0 0.00 0.00 0.00 97
20260505090916 68 53 0.0 0.9 0.00 0.00 0.00 97
20260505090615 68 80 0.0 0.0 0.00 0.00 0.00 97
20260505090313 68 80 0.0 0.9 0.00 0.00 0.00 97
20260505090013 68 121 0.9 0.9 0.00 0.00 0.00 97
20260505090001 68 203 0.0 0.0 0.00 0.00 0.00 97
20260505084223 68 199 0.9 0.9 0.00 0.00 0.00 97
20260505083914 68 199 0.0 0.0 0.00 0.00 0.00 97
20260505083624 68 201 0.0 0.0 0.00 0.00 0.00 97
20260505083322 68 100 0.9 0.9 0.00 0.00 0.00 97
20260505083019 68 109 0.0 0.0 0.00 0.00 0.00 97
20260505082719 68 109 0.0 0.0 0.00 0.00 0.00 97
20260505082418 68 109 0.0 0.0 0.00 0.00 0.00 97
20260505082118 68 194 0.0 0.0 0.00 0.00 0.00 97
20260505081818 68 164 0.0 0.9 0.00 0.00 0.00 97
20260505081517 68 163 0.0 0.0 0.00 0.00 0.00 97
20260505081215 68 87 0.0 1.7 0.00 0.00 0.00 97
20260505080923 68 210 0.0 0.9 0.00 0.00 0.00 97
20260505080622 68 209 0.0 0.9 0.00 0.00 0.00 97
20260505080322 68 210 0.0 0.0 0.00 0.00 0.00 97
20260505080020 68 208 0.0 0.0 0.00 0.00 0.00 97
20260505080008 68 209 0.0 0.0 0.00 0.00 0.00 97
20260505074214 68 81 0.0 0.0 0.00 0.00 0.00 97
20260505073923 68 81 0.0 0.0 0.00 0.00 0.00 97
20260505073616 68 80 0.0 0.9 0.00 0.00 0.00 97
20260505073317 68 94 0.9 0.9 0.00 0.00 0.00 97
20260505073021 68 60 0.0 0.0 0.00 0.00 0.00 97
20260505072716 68 60 0.0 0.9 0.00 0.00 0.00 97
20260505072414 68 227 0.0 0.9 0.00 0.00 0.00 97
20260505072113 68 206 0.9 0.9 0.00 0.00 0.00 97
20260505071813 68 96 0.0 0.9 0.00 0.00 0.00 97
20260505071523 68 212 0.0 0.0 0.00 0.00 0.00 97
20260505071222 68 212 0.0 0.9 0.00 0.00 0.00 97
20260505070918 68 185 0.0 0.9 0.00 0.00 0.00 97
20260505070616 68 96 0.0 0.0 0.00 0.00 0.00 97
20260505070321 68 96 0.0 0.9 0.00 0.00 0.00 97
20260505070020 68 209 0.0 0.0 0.00 0.00 0.00 97
20260505070008 68 140 0.0 0.9 0.00 0.00 0.00 97
20260505064524 67 101 0.0 0.0 0.00 0.00 0.00 97
20260505064224 67 104 0.9 0.9 0.00 0.00 0.00 97
20260505063921 67 214 0.0 0.0 0.00 0.00 0.00 97
20260505063617 67 192 0.9 1.7 0.00 0.00 0.00 97
20260505063323 67 86 0.0 0.0 0.00 0.00 0.00 97
20260505063021 67 242 0.0 0.0 0.00 0.00 0.00 97
20260505062720 67 242 0.0 0.0 0.00 0.00 0.00 97
20260505062418 68 244 0.0 0.0 0.00 0.00 0.00 97
20260505062118 68 109 0.9 0.9 0.00 0.00 0.00 97
20260505061818 67 248 0.0 0.9 0.00 0.00 0.00 97
20260505061521 67 98 0.0 0.0 0.00 0.00 0.00 97
20260505061221 68 98 0.0 0.0 0.00 0.00 0.00 97
20260505060927 67 98 0.0 0.0 0.00 0.00 0.00 97
20260505060617 67 101 0.9 0.9 0.00 0.00 0.00 97
20260505060315 67 199 0.9 1.7 0.00 0.00 0.00 97
20260505060025 67 112 0.0 0.9 0.00 0.00 0.00 97
20260505060010 67 199 0.0 0.0 0.00 0.00 0.00 97
20260505054215 67 208 0.0 0.0 0.00 0.00 0.00 97
20260505053924 67 197 0.0 0.0 0.00 0.00 0.00 97
20260505053624 67 198 0.9 0.9 0.00 0.00 0.00 97
20260505053315 67 58 0.9 0.9 0.00 0.00 0.00 96
20260505053019 67 189 0.0 0.0 0.00 0.00 0.00 97
20260505052718 67 211 0.9 0.9 0.00 0.00 0.00 97
20260505052417 66 160 0.0 0.0 0.00 0.00 0.00 96
20260505052125 66 160 0.0 0.0 0.00 0.00 0.00 96
20260505051822 67 160 0.0 0.0 0.00 0.00 0.00 96
20260505051522 67 159 0.0 0.9 0.00 0.00 0.00 96
20260505051221 67 160 0.0 0.0 0.00 0.00 0.00 96
20260505050920 67 258 0.9 0.9 0.00 0.00 0.00 96
20260505050618 67 212 0.9 1.7 0.00 0.00 0.00 96
20260505050318 67 99 0.0 0.0 0.00 0.00 0.00 96
20260505041517 66 88 0.0 0.0 0.00 0.00 0.00 96
20260505041222 66 88 0.0 0.0 0.00 0.00 0.00 96
20260505040916 66 88 0.0 0.0 0.00 0.00 0.00 96
20260505040615 66 88 0.0 0.0 0.00 0.00 0.00 96
20260505040324 66 88 0.0 0.0 0.00 0.00 0.00 96
20260505040024 66 88 0.0 0.0 0.00 0.00 0.00 96
20260505040001 66 87 0.0 0.0 0.00 0.00 0.00 96
20260505034223 66 87 0.0 0.0 0.00 0.00 0.00 96
20260505033922 66 87 0.0 0.0 0.00 0.00 0.00 96
20260505033622 66 87 0.0 0.0 0.00 0.00 0.00 96
20260505033322 66 87 0.0 0.0 0.00 0.00 0.00 96
20260505033020 66 87 0.0 0.0 0.00 0.00 0.00 96
20260505032720 66 87 0.0 0.0 0.00 0.00 0.00 96
20260505032424 66 87 0.0 0.0 0.00 0.00 0.00 96
20260505032127 66 87 0.0 0.0 0.00 0.00 0.00 96
20260505031821 66 87 0.0 0.0 0.00 0.00 0.00 96
20260505031520 66 87 0.0 0.0 0.00 0.00 0.00 96
20260505031219 66 87 0.0 0.0 0.00 0.00 0.00 96
20260505030917 66 87 0.0 0.0 0.00 0.00 0.00 96
20260505030617 66 87 0.0 0.0 0.00 0.00 0.00 96
20260505030314 66 87 0.0 0.0 0.00 0.00 0.00 96
20260505030020 67 87 0.0 0.0 0.00 0.00 0.00 96
20260505030008 67 87 0.0 0.0 0.00 0.00 0.00 96
20260505024219 67 86 0.0 0.0 0.00 0.00 0.00 96
20260505023915 67 92 0.0 0.0 0.00 0.00 0.00 96
20260505023624 67 216 0.0 0.0 0.00 0.00 0.00 96
20260505023320 67 217 0.0 0.0 0.00 0.00 0.00 96
20260505023016 67 125 0.0 0.0 0.00 0.00 0.00 95
20260505022725 67 145 0.0 0.0 0.00 0.00 0.00 95
20260505022418 67 144 0.0 0.0 0.00 0.00 0.00 95
20260505022122 67 145 0.0 0.0 0.00 0.00 0.00 95
20260505021819 67 145 0.0 0.0 0.00 0.00 0.00 95
20260505021514 67 145 0.0 0.0 0.00 0.00 0.00 95
20260505021223 67 145 0.0 0.0 0.00 0.00 0.00 95
20260505020919 67 145 0.0 0.0 0.00 0.00 0.00 95
20260505020615 67 144 0.0 0.0 0.00 0.00 0.00 95
20260505020324 67 145 0.0 0.0 0.00 0.00 0.00 95
20260505020021 67 145 0.0 0.0 0.00 0.00 0.00 95
20260505020010 67 145 0.0 0.0 0.00 0.00 0.00 95
20260505014223 68 120 0.0 0.0 0.00 0.00 0.00 95
20260505013919 68 203 0.0 0.0 0.00 0.00 0.00 94
20260505013618 68 205 0.0 0.0 0.00 0.00 0.00 95
20260505013315 68 203 0.0 0.0 0.00 0.00 0.00 94
20260505013023 68 205 0.0 0.0 0.00 0.00 0.00 94
20260505012720 68 208 0.0 0.0 0.00 0.00 0.00 94
20260505012418 68 208 0.0 0.0 0.00 0.00 0.00 94
20260505012123 68 211 0.0 0.0 0.00 0.00 0.00 94
20260505011819 68 120 0.0 0.0 0.00 0.00 0.00 94
20260505011517 68 119 0.0 0.0 0.00 0.00 0.00 94
20260505011215 68 150 0.0 0.0 0.00 0.00 0.00 94
20260505010920 68 213 0.0 0.0 0.00 0.00 0.00 94
20260505010618 68 213 0.0 0.0 0.00 0.00 0.00 94
20260505010317 68 203 0.0 0.0 0.00 0.00 0.00 93
20260505010024 68 203 0.0 0.0 0.00 0.00 0.00 93
20260505010001 68 203 0.0 0.0 0.00 0.00 0.00 93
20260505004221 69 219 0.0 0.0 0.00 0.00 0.00 92
20260505003927 69 170 0.0 0.0 0.00 0.00 0.00 92
20260505003624 69 122 0.0 0.0 0.00 0.00 0.00 92
20260505003322 69 230 0.0 0.0 0.00 0.00 0.00 92
20260505003016 69 182 0.0 0.0 0.00 0.00 0.00 92
20260505002724 70 178 0.0 0.0 0.00 0.00 0.00 92
20260505002422 70 212 0.0 0.0 0.00 0.00 0.00 91
20260505002119 70 212 0.0 0.0 0.00 0.00 0.00 91
20260505001827 70 212 0.0 0.0 0.00 0.00 0.00 91
20260505001519 70 211 0.0 0.0 0.00 0.00 0.00 91
20260505001217 70 210 0.0 0.0 0.00 0.00 0.00 91
20260505000925 70 212 0.0 0.0 0.00 0.00 0.00 91
20260505000617 71 192 0.0 0.0 0.00 0.00 0.00 90
20260505000320 71 178 0.0 0.0 0.00 0.00 0.00 90
20260505000026 71 178 0.0 0.0 0.00 0.00 0.00 90
20260505000002 71 137 0.0 0.0 0.00 0.00 0.00 90
20260504234227 71 234 0.0 0.0 0.00 0.00 0.00 89
20260504233924 71 234 0.0 0.0 0.00 0.00 0.00 90
20260504233618 72 234 0.0 0.9 0.00 0.00 0.00 89
20260504233323 72 233 0.0 0.9 0.00 0.00 0.00 89
20260504233018 72 233 0.9 0.9 0.00 0.00 0.00 89
20260504232725 72 233 0.9 0.9 0.00 0.00 0.00 88
20260504232423 72 234 0.0 0.0 0.00 0.00 0.00 88
20260504232120 72 234 0.0 0.9 0.00 0.00 0.00 88
20260504231827 72 223 0.0 0.9 0.00 0.00 0.00 87
20260504231524 73 239 0.0 0.9 0.00 0.00 0.00 86
20260504231221 73 239 0.0 0.9 0.00 0.00 0.00 86
20260504230919 73 78 0.0 0.0 0.00 0.00 0.00 87
20260504230618 73 77 0.0 0.0 0.00 0.00 0.00 86
20260504230326 73 77 0.0 0.0 0.00 0.00 0.00 86
20260504230027 73 77 0.0 0.0 0.00 0.00 0.00 85
20260504230001 73 77 0.0 0.0 0.00 0.00 0.00 86
20260504224226 74 78 0.0 0.0 0.00 0.00 0.00 84
20260504223924 74 78 0.0 0.9 0.00 0.00 0.00 85
20260504223621 74 92 0.0 0.0 0.00 0.00 0.00 83
20260504223320 74 91 0.0 0.0 0.00 0.00 0.00 84
20260504223017 74 68 0.9 0.9 0.00 0.00 0.00 82
20260504222727 74 322 0.0 0.0 0.00 0.00 0.00 83
20260504222423 74 289 0.0 2.6 0.00 0.00 0.00 83
20260504222119 74 109 0.9 0.9 0.00 0.00 0.00 83
20260504221826 74 34 0.0 0.9 0.00 0.00 0.00 84
20260504221525 74 29 0.9 0.9 0.00 0.00 0.00 83
20260504221221 74 225 0.0 0.0 0.00 0.00 0.00 83
20260504220919 74 229 0.9 0.9 0.00 0.00 0.00 82
20260504220616 75 70 0.9 1.7 0.00 0.00 0.00 82
20260504220325 75 43 0.0 0.9 0.00 0.00 0.00 82
20260504220022 75 73 0.0 0.0 0.00 0.00 0.00 81
20260504220010 75 73 0.0 0.9 0.00 0.00 0.00 81
20260504214219 74 3 0.0 0.9 0.00 0.00 0.00 81
20260504213918 75 248 1.7 2.6 0.00 0.00 0.00 80
20260504213626 75 47 1.7 1.7 0.00 0.00 0.00 81
20260504213322 75 96 0.0 0.0 0.00 0.00 0.00 81
20260504213019 75 64 0.0 0.9 0.00 0.00 0.00 80
20260504212717 75 53 0.0 0.0 0.00 0.00 0.00 81
20260504212425 75 50 0.9 2.6 0.00 0.00 0.00 79
20260504212123 75 310 0.9 2.6 0.00 0.00 0.00 79
20260504211819 75 347 0.0 0.9 0.00 0.00 0.00 79
20260504211517 76 326 0.9 5.2 0.00 0.00 0.00 78
20260504211226 76 67 0.0 1.7 0.00 0.00 0.00 79
20260504210917 75 52 0.0 0.0 0.00 0.00 0.00 79
20260504210624 75 41 0.9 0.9 0.00 0.00 0.00 79
20260504210320 75 141 0.0 1.7 0.00 0.00 0.00 81
20260504210018 75 38 0.0 0.9 0.00 0.00 0.00 82
20260504210007 75 145 0.0 3.5 0.00 0.00 0.00 80
20260504204219 75 353 0.9 1.7 0.00 0.00 0.00 80
20260504203917 76 133 0.0 0.9 0.00 0.00 0.00 81
20260504203625 75 253 0.0 0.9 0.00 0.00 0.00 80
20260504203320 76 166 2.6 6.1 0.00 0.00 0.00 79
20260504203017 76 248 0.0 0.9 0.00 0.00 0.00 79
20260504202727 76 251 0.9 2.6 0.00 0.00 0.00 79
20260504202423 76 116 0.9 0.9 0.00 0.00 0.00 79
20260504202120 76 234 2.6 2.6 0.00 0.00 0.00 78
20260504201827 77 287 0.9 2.6 0.00 0.00 0.00 79
20260504201524 76 259 3.5 3.5 0.00 0.00 0.00 78
20260504201220 77 152 4.3 7.8 0.00 0.00 0.00 76
20260504200928 78 273 0.9 3.5 0.00 0.00 0.00 76
20260504200617 77 69 1.7 1.7 0.00 0.00 0.00 76
20260504200316 76 111 0.9 1.7 0.00 0.00 0.00 78
20260504200024 77 86 3.5 3.5 0.00 0.00 0.00 76
20260504200001 76 182 2.6 5.2 0.00 0.00 0.00 77
20260504194221 79 197 1.7 5.2 0.00 0.00 0.00 74
20260504193927 76 34 0.9 0.9 0.00 0.00 0.00 77
20260504193623 76 171 0.9 1.7 0.00 0.00 0.00 76
20260504193318 77 201 0.9 2.6 0.00 0.00 0.00 76
20260504193017 77 134 0.9 2.6 0.00 0.00 0.00 75
20260504192723 77 184 0.0 2.6 0.00 0.00 0.00 75
20260504192421 78 140 0.9 1.7 0.00 0.00 0.00 73
20260504192119 76 84 1.7 2.6 0.00 0.00 0.00 74
20260504191817 77 300 0.9 1.7 0.00 0.00 0.00 73
20260504191525 78 242 5.2 7.8 0.00 0.00 0.00 73
20260504191228 77 307 0.9 5.2 0.00 0.00 0.00 73
20260504190919 76 200 2.6 5.2 0.00 0.00 0.00 74
20260504190617 77 161 1.7 2.6 0.00 0.00 0.00 75
20260504190327 78 206 2.6 6.1 0.00 0.00 0.00 74
20260504190024 77 27 0.9 2.6 0.00 0.00 0.00 74
20260504190001 77 229 1.7 2.6 0.00 0.00 0.00 73
20260504184220 78 262 1.7 2.6 0.00 0.00 0.00 73
20260504183919 78 140 1.7 2.6 0.00 0.00 0.00 73
20260504183619 77 255 5.2 7.0 0.00 0.00 0.00 72
20260504183318 78 290 0.9 5.2 0.00 0.00 0.00 72
20260504183026 79 89 0.9 1.7 0.00 0.00 0.00 71
20260504182724 78 131 0.9 0.9 0.00 0.00 0.00 72
20260504182425 77 53 2.6 2.6 0.00 0.00 0.00 72
20260504182124 78 213 1.7 3.5 0.00 0.00 0.00 72
20260504181823 78 12 0.9 2.6 0.00 0.00 0.00 72
20260504181523 78 244 2.6 5.2 0.00 0.00 0.00 71
20260504181222 79 232 1.7 5.2 0.00 0.00 0.00 70
20260504180923 78 205 0.9 2.6 0.00 0.00 0.00 71
20260504180621 78 120 0.0 1.7 0.00 0.00 0.00 70
20260504180321 79 246 2.6 5.2 0.00 0.00 0.00 70
20260504180021 79 85 1.7 7.0 0.00 0.00 0.00 70
20260504180010 80 77 0.0 2.6 0.00 0.00 0.00 69
20260504174225 77 86 0.9 1.7 0.00 0.00 0.00 70
20260504173923 78 30 0.9 8.7 0.00 0.00 0.00 72
20260504173622 78 258 2.6 3.5 0.00 0.00 0.00 69
20260504173319 78 163 1.7 2.6 0.00 0.00 0.00 67
20260504173027 78 173 1.7 2.6 0.00 0.00 0.00 69
20260504172726 78 127 0.9 5.2 0.00 0.00 0.00 68
20260504172425 78 85 2.6 6.1 0.00 0.00 0.00 66
20260504172125 78 150 3.5 5.2 0.00 0.00 0.00 67
20260504171825 80 226 5.2 7.0 0.00 0.00 0.00 66
20260504171525 80 305 1.7 9.6 0.00 0.00 0.00 68
20260504171225 80 221 0.9 3.5 0.00 0.00 0.00 65
20260504170922 79 60 1.7 1.7 0.00 0.00 0.00 65
20260504170621 78 218 0.9 3.5 0.00 0.00 0.00 70
20260504170321 79 75 3.5 6.1 0.00 0.00 0.00 64
20260504160326 81 205 3.5 5.2 0.00 0.00 0.00 62
20260504150925 79 119 0.0 3.5 0.00 0.00 0.00 68
20260504150623 80 39 1.7 7.0 0.00 0.00 0.00 68
20260504150330 80 249 1.7 5.2 0.00 0.00 0.00 69
20260504141220 78 329 0.9 3.5 0.00 0.00 0.00 72
20260504140928 79 137 4.3 12.2 0.00 0.00 0.00 70
20260504140626 78 265 1.7 7.0 0.00 0.00 0.00 72
20260504140320 77 194 0.9 2.6 0.00 0.00 0.00 70
20260504130622 75 265 1.7 5.2 0.00 0.00 0.00 71
20260504130320 76 181 2.6 7.8 0.00 0.00 0.00 70
20260504120318 71 59 0.9 2.6 0.00 0.00 0.00 86
20260504110628 67 194 0.9 0.9 0.00 0.00 0.00 97
20260504110327 67 193 0.0 0.9 0.00 0.00 0.00 97
20260504100326 66 234 0.0 0.0 0.00 0.00 0.00 97